Clarksburg, WV

1:03 AM EDT on September 18, 2019 (GMT -0400)
Benedum

Weather History for KCKB - May, 2019

Change the Weather History Date:

Thursday, May 16, 2019

  Actual Average Record
Temperature  
Mean Temperature 63 °F -  
Max Temperature 76 °F 74 °F 90 °F (1962)
Min Temperature 50 °F 47 °F 31 °F (1984)
Degree Days  
Heating Degree Days 2    
Month to date heating degree days 55  
Growing Degree Days 12 (Base 50)    
Moisture  
Dew Point 47 °F    
Average Humidity 61    
Maximum Humidity 83    
Minimum Humidity 38    
Precipitation  
Precipitation 0.00 in - - ()
Month to date precipitation 1.80  
Year to date precipitation 15.93  
Sea Level Pressure  
Sea Level Pressure 29.93 in    
Wind  
Wind Speed 6 mph (SW)    
Max Wind Speed 16 mph    
Max Gust Speed 21 mph    
Visibility 10 miles    
Events      
Averages and records for this station are not official NWS values.
T = Trace of Precipitation, MM = Missing Value Source: NWS Daily Summary

Daily Weather History Graph

Daily Weather History Graph

Search for Another Location

Airport or City:

Astronomy

May. 16, 2019 Rise Set
Actual Time 6:06 AM EDT 8:28 PM EDT
Civil Twilight 5:36 AM EDT 8:58 PM EDT
Nautical Twilight 4:59 AM EDT 9:36 PM EDT
Astronomical Twilight 4:17 AM EDT 10:17 PM EDT
Moon 6:07 PM EDT (5/16) 5:02 AM EDT (5/16)
Length of Visible Light 15h 22m
Length of Day
14h 21m
Waxing Gibbous, 94% of the Moon is Illuminated
May 16
Waxing Gibbous
May 18
Full
May 26
Last Quarter
Jun 3
New
Jun 10
First Quarter

Hourly Weather History & Observations

Time (EDT) Temp. Dew Point Humidity Pressure Visibility Wind Dir Wind Speed Gust Speed Precip Events Conditions
12:53 AM 54.0 °F 43.0 °F 66% 29.95 in 10.0 mi South 3.5 mph - N/A   Clear
1:53 AM 52.0 °F 43.0 °F 71% 29.95 in 10.0 mi South 3.5 mph - N/A   Clear
2:53 AM 53.1 °F 44.1 °F 71% 29.94 in 10.0 mi South 4.6 mph - N/A   Clear
3:53 AM 51.1 °F 43.0 °F 74% 29.93 in 10.0 mi SSW 4.6 mph - N/A   Clear
4:53 AM 51.1 °F 44.1 °F 77% 29.95 in 10.0 mi SSW 3.5 mph - N/A   Clear
5:53 AM 50.0 °F 44.1 °F 80% 29.96 in 10.0 mi South 4.6 mph - N/A   Clear
6:53 AM 52.0 °F 46.0 °F 80% 29.97 in 10.0 mi South 3.5 mph - N/A   Partly Cloudy
7:53 AM 55.0 °F 46.9 °F 74% 30.00 in 10.0 mi SSW 4.6 mph - N/A   Scattered Clouds
8:53 AM 59.0 °F 48.9 °F 69% 30.00 in 10.0 mi SW 8.1 mph - N/A   Partly Cloudy
9:53 AM 64.0 °F 50.0 °F 60% 29.99 in 10.0 mi SW 11.5 mph - N/A   Clear
10:53 AM 66.9 °F 52.0 °F 59% 29.98 in 10.0 mi SW 6.9 mph - N/A   Clear
11:53 AM 68.0 °F 52.0 °F 56% 29.97 in 10.0 mi West 6.9 mph 16.1 mph N/A   Mostly Cloudy
12:53 PM 72.0 °F 52.0 °F 49% 29.97 in 10.0 mi West 10.4 mph 18.4 mph N/A   Scattered Clouds
1:53 PM 72.0 °F 48.9 °F 44% 29.95 in 10.0 mi WNW 11.5 mph - N/A   Mostly Cloudy
2:53 PM 73.0 °F 48.9 °F 42% 29.94 in 10.0 mi WSW 9.2 mph 16.1 mph N/A   Mostly Cloudy
3:53 PM 73.0 °F 48.0 °F 41% 29.90 in 10.0 mi SW 9.2 mph - N/A   Partly Cloudy
4:53 PM 75.0 °F 48.9 °F 40% 29.88 in 10.0 mi West 9.2 mph - N/A   Scattered Clouds
5:53 PM 73.0 °F 48.9 °F 42% 29.87 in 10.0 mi SW 9.2 mph - N/A   Mostly Cloudy
6:53 PM 71.1 °F 46.9 °F 42% 29.87 in 10.0 mi SSW 9.2 mph - N/A   Partly Cloudy
7:53 PM 69.1 °F 46.9 °F 45% 29.87 in 10.0 mi SW 6.9 mph - N/A   Clear
8:53 PM 64.9 °F 46.9 °F 52% 29.89 in 10.0 mi SSW 4.6 mph - N/A   Clear
9:53 PM 63.0 °F 48.0 °F 58% 29.90 in 10.0 mi South 3.5 mph - N/A   Clear
10:53 PM 61.0 °F 48.0 °F 62% 29.89 in 10.0 mi SSE 3.5 mph - N/A   Clear
11:53 PM 60.1 °F 46.9 °F 62% 29.86 in 10.0 mi Calm Calm - N/A   Clear